User: anonymous   Login
Location: Ford County Road and Bridge Department
(37.7686°N, 99.9762°W)
Time: 01:54:39
(UTC+00:00)
Language:

Cosmos 1340 Rocket - Orbit

View from above orbital plane
View from above orbital plane
View from above satellite
View from above satellite

Ground track
Ground track

The orbit data is extracted from the following two-line orbital elements,

1 13068U 82013B   20090.89995017 -.00000125 +00000-0 -97580-5 0  9995
2 13068 081.2034 140.1623 0022064 193.4625 166.6014 15.07414786076795
Epoch (UTC): 30 March 2020 21:35:55
Eccentricity: 0.0022064
inclination: 81.2034°
perigee height: 529 km
apogee height: 559 km
right ascension of ascending node: 140.1623°
argument of perigee: 193.4625°
revolutions per day: 15.07414786
mean anomaly at epoch: 166.6014°
orbit number at epoch: 7679

The dashed part of the orbit path shows where the satellite is in the earth's shadow,  

DLR